Location: Chiroubles
(46.1812°N, 4.6660°E)
Time: 03:11:26
(UTC+00:00)

MOS 1-B Rocket - Pass Details

Date: 15 August 2020
Orbit: 890 x 1606 km, 99.1° (Epoch: 27 September)

Event Time Altitude Azimuth Distance (km) Brightness Sun altitude
Rises 22:14:32 0° 15° (NNE) 3,533 7.7 -26.7°
Reaches altitude 10° 22:16:56 10° 17° (NNE) 2,571 6.8 -26.9°
Maximum altitude 22:22:33 80° 105° (ESE) 919 3.7 -27.3°
Enters shadow 22:22:46 79° 136° (SE) 924 3.6 -27.3°
